{"data":{"norad_id":60030,"intl_designator":"2024-111Q","name":"STARLINK-32011","alt_names":[],"object_type":"PAYLOAD","status":"ACTIVE","operator":null,"country":"US","launch_date":"2024-06-08","launch_site_code":"AFETR","launch_vehicle":null,"mission":null,"orbit_class":"UNKNOWN","rcs_meters":null,"size_class":null,"mass_kg":null,"dimensions":null,"purposes":["comms"],"wikipedia_slug":null,"has_3d_model":false,"image_url":null,"decayed_at":null,"tle_current":{"epoch":"2026-09-21T21:58:43.040352Z","epoch_age_seconds":55915,"freshness":"FRESH","line1":"1 60030U 24111Q   26264.91577593  .00000249  00000+0  18526-4 0  9994","line2":"2 60030  53.1600 239.4261 0001350  89.3680 270.7477 15.34382464129147","mean_motion":15.34382464,"eccentricity":0.000135,"inclination_deg":53.16,"raan_deg":239.4261,"arg_perigee_deg":89.368,"mean_anomaly_deg":270.7477,"bstar":1.8526e-5,"rev_number":12914,"period_min":93.848830639399,"perigee_km":461.83184092225,"apogee_km":463.67888185983,"semimajor_km":6840.892361391,"source":"CELESTRAK","updated_at":"2026-09-22T09:00:49.140071Z"}}}